Cloud_Cover
100 100 100 100 100 98 100 100 100 100 99 98 100 100 100 88 95 33 5 5 5 5
12 100 100 100 100 100 100 100 100 88 99 100 100 100 99 100 62 6 8 6 5 5
100 100 100 100 100 100 96 100 100 97 100 100 100 78 39 79 69 87 99 95 92 38
100 100 100 100 91 100 100 100 100 99 100 99 60 94 65 70 100 100 94 100 98 3
100 100 100 100 99 100 100 100 100 100 34 44 96 87 100 89 100 100 100 52 71 42
86 63 53 60 96 97 97 100 100 100 100 100 89 97 100 100 100 76 59 100 98 63
5 8 50 57 20 42 73 99 100 100 100 100 100 100 100 100 100 97 98 99 96 97
5 7 16 6 58 100 100 100 100 100 100 98 100 100 100 99 100 100 100 100 100 100
5 5 72 100 100 100 100 100 100 100 93 98 98 100 100 100 74 100 100 100 100 100
51 39 51 100 100 100 100 100 100 100 100 100 100 100 99 100 95 100 100 100 100 99
10 80 76 96 95 100 97 100 100 100 100 100 100 100 100 100 100 97 100 100 100 49
90 97 76 89 99 100 100 100 100 100 100 100 100 100 96 86 96 100 100 100 79 11
92 98 100 90 64 100 100 100 100 100 100 100 96 13 93 100 100 100 100 67 60 5
100 99 54 56 100 100 100 99 79 55 58 61 78 100 100 100 100 100 81 81 30 5